FW7308 Weather Reports


time (UTC)temp
F
wind
direction
speed
knots
gust
knots
rain 1hr
in
rain 24hr
in
rain mn
in
humidity
%
barometer
mb
20260504021734 35 322 1.7 1.7 0.00 0.00 0.00 76 1011.2
20260504021232 35 321 1.7 1.7 0.00 0.00 0.00 77 1011.2
20260504020631 36 324 1.7 1.7 0.00 0.00 0.00 77 1010.9
20260504020131 36 331 1.7 2.6 0.00 0.00 0.00 77 1011.2
20260504015230 36 326 1.7 1.7 0.00 0.00 0.00 77 1011.2
20260504014632 36 318 1.7 1.7 0.00 0.00 0.00 76 1010.9
20260504014129 36 324 1.7 1.7 0.00 0.00 0.00 76 1010.9
20260504013630 36 328 1.7 1.7 0.00 0.00 0.00 76 1011.0
20260504012628 36 321 1.7 1.7 0.00 0.00 0.00 75 1010.9
20260504012129 36 324 1.7 1.7 0.00 0.00 0.00 75 1010.9
20260504011628 37 323 1.7 1.7 0.00 0.00 0.00 75 1010.9
20260504011127 37 326 1.7 1.7 0.00 0.00 0.00 74 1010.5
20260504010627 37 326 1.7 1.7 0.00 0.00 0.00 74 1010.5
20260504010126 37 326 1.7 1.7 0.00 0.00 0.00 74 1010.5
20260504005625 37 324 1.7 1.7 0.00 0.00 0.00 73 1010.5
20260504005126 37 328 1.7 1.7 0.00 0.00 0.00 75 1010.3
20260504004625 38 325 1.7 1.7 0.00 0.00 0.00 74 1010.5
20260504004124 38 324 1.7 1.7 0.00 0.00 0.00 72 1010.1
20260504003624 38 325 1.7 1.7 0.00 0.00 0.00 73 1010.5
20260504003127 38 319 1.7 1.7 0.00 0.00 0.00 72 1010.1
20260504002724 39 324 1.7 1.7 0.00 0.00 0.00 71 1010.1
20260504002124 39 323 1.7 1.7 0.00 0.00 0.00 73 1010.1
20260504001623 40 324 1.7 1.7 0.00 0.00 0.00 70 1010.1
20260504001124 40 326 0.9 1.7 0.00 0.00 0.00 68 1010.1
20260504000623 41 324 0.9 0.9 0.00 0.00 0.00 67 1009.8
20260504000222 41 330 0.9 1.7 0.00 0.00 0.00 65 1009.8
20260503235621 42 325 0.9 1.7 0.00 0.00 0.00 64 1009.8
20260503235123 43 334 0.9 0.9 0.00 0.00 0.00 61 1009.8
20260503234622 43 338 0.9 1.7 0.00 0.00 0.00 61 1009.8
20260503234122 44 335 0.0 0.9 0.00 0.00 0.00 61 1009.8
20260503233620 45 337 0.0 0.9 0.00 0.00 0.00 55 1009.8
20260503233119 46 340 0.0 0.9 0.00 0.00 0.00 55 1009.8
20260503232620 46 338 0.9 1.7 0.00 0.00 0.00 53 1009.8
20260503232120 46 334 0.9 0.9 0.00 0.00 0.00 54 1009.8
20260503231619 47 338 1.7 2.6 0.00 0.00 0.00 50 1009.8
20260503231120 47 325 0.0 0.9 0.00 0.00 0.00 48 1009.4
20260503230619 47 332 0.9 1.7 0.00 0.00 0.00 48 1009.4
20260503230118 48 342 2.6 5.2 0.00 0.00 0.00 48 1009.4
20260503225719 48 342 1.7 2.6 0.00 0.00 0.00 48 1009.6
20260503225119 48 319 1.7 4.3 0.00 0.00 0.00 47 1009.4
20260503224618 47 324 1.7 1.7 0.00 0.00 0.00 48 1009.4
20260503224117 47 297 3.5 5.2 0.00 0.00 0.00 47 1009.6
20260503223618 47 289 3.5 7.0 0.00 0.00 0.00 48 1009.4
20260503223117 48 310 3.5 7.0 0.00 0.00 0.00 49 1009.8
20260503222616 48 330 6.1 7.8 0.00 0.00 0.00 48 1009.4
20260503222146 49 327 1.7 1.7 0.00 0.00 0.00 48 1009.4
20260503221645 49 317 3.5 4.3 0.00 0.00 0.00 48 1009.4
20260503221144 49 262 4.3 6.1 0.00 0.00 0.00 48 1009.6
20260503220645 49 346 2.6 7.0 0.00 0.00 0.00 47 1009.6
20260503220144 51 322 1.7 4.3 0.00 0.00 0.00 47 1009.4
20260503215643 50 323 0.9 0.9 0.00 0.00 0.00 48 1009.4
20260503215145 48 337 0.9 0.9 0.00 0.00 0.00 48 1009.4
20260503214644 48 303 2.6 5.2 0.00 0.00 0.00 49 1009.4
20260503214144 48 340 3.5 5.2 0.00 0.00 0.00 49 1009.4
20260503213643 48 287 3.5 5.2 0.00 0.00 0.00 50 1009.4
20260503213142 48 346 3.5 6.1 0.00 0.00 0.00 48 1009.4
20260503212644 48 315 3.5 6.1 0.00 0.00 0.00 48 1009.4
20260503212142 48 345 7.8 8.7 0.00 0.00 0.00 48 1009.4
20260503211641 48 346 3.5 6.1 0.00 0.00 0.00 48 1009.4
20260503210142 48 303 5.2 11.3 0.00 0.00 0.00 49 1009.1
20260503205640 47 306 2.6 4.3 0.00 0.00 0.00 49 1009.1
20260503205144 47 345 5.2 8.7 0.00 0.00 0.00 49 1009.4
20260503204638 48 328 3.5 7.0 0.00 0.00 0.00 51 1009.4
20260503204139 47 331 7.0 17.4 0.00 0.00 0.00 49 1009.4
20260503203639 47 322 1.7 2.6 0.00 0.00 0.00 49 1009.4
20260503203138 47 349 3.5 6.1 0.00 0.00 0.00 49 1009.1
20260503202639 47 5 4.3 6.1 0.00 0.00 0.00 49 1009.1
20260503202136 47 311 6.1 9.6 0.00 0.00 0.00 50 1009.1
20260503201638 47 327 4.3 6.1 0.00 0.00 0.00 50 1009.1
20260503201138 47 326 5.2 7.0 0.00 0.00 0.00 50 1009.3
20260503200636 47 343 2.6 5.2 0.00 0.00 0.00 51 1009.4
20260503200137 46 355 3.5 9.6 0.00 0.00 0.00 50 1009.3
20260503195736 46 326 4.3 7.0 0.00 0.00 0.00 50 1009.4
20260503195136 47 355 4.3 8.7 0.00 0.00 0.00 49 1009.1
20260503194637 47 322 4.3 6.1 0.00 0.00 0.00 50 1009.4
20260503194136 48 293 4.3 7.0 0.00 0.00 0.00 48 1009.3
20260503193635 47 333 2.6 2.6 0.00 0.00 0.00 50 1009.4
20260503193134 47 336 6.1 13.0 0.00 0.00 0.00 49 1009.4
20260503192634 47 338 1.7 6.1 0.00 0.00 0.00 49 1009.4
20260503192136 47 14 6.1 8.7 0.00 0.00 0.00 49 1009.4
20260503191133 47 353 4.3 8.7 0.00 0.00 0.00 48 1009.4
20260503190735 47 329 4.3 6.1 0.00 0.00 0.00 49 1009.4
20260503185633 47 329 5.2 7.8 0.00 0.00 0.00 48 1009.4
20260503185132 47 271 5.2 7.8 0.00 0.00 0.00 49 1009.6
20260503184631 46 308 4.3 7.0 0.00 0.00 0.00 50 1009.4
20260503184130 46 331 4.3 7.0 0.00 0.00 0.00 51 1009.4
20260503183632 46 349 2.6 5.2 0.00 0.00 0.00 51 1009.4
20260503183131 47 2 4.3 6.1 0.00 0.00 0.00 52 1009.4
20260503182130 48 3 6.1 8.7 0.00 0.00 0.00 52 1009.4
20260503181630 47 296 4.3 6.1 0.00 0.00 0.00 52 1009.4
20260503181130 46 337 4.3 7.0 0.00 0.00 0.00 52 1009.3
20260503180128 47 344 5.2 7.8 0.00 0.00 0.00 52 1009.1
20260503175627 48 284 6.1 8.7 0.00 0.00 0.00 51 1009.1
20260503175128 49 318 1.7 5.2 0.00 0.00 0.00 51 1008.9
20260503174627 48 280 7.8 13.9 0.00 0.00 0.00 50 1009.1
20260503174126 49 344 4.3 7.0 0.00 0.00 0.00 51 1009.1
20260503173626 47 7 7.8 11.3 0.00 0.00 0.00 50 1009.1
20260503172628 48 335 6.1 8.7 0.00 0.00 0.00 48 1009.1
20260503172125 47 321 5.2 9.6 0.00 0.00 0.00 49 1008.9
20260503171730 48 324 1.7 2.6 0.00 0.00 0.00 48 1008.7
20260503171126 49 308 7.0 11.3 0.00 0.00 0.00 46 1008.7
20260503170625 47 357 2.6 5.2 0.00 0.00 0.00 49 1008.9
20260503170124 46 321 6.1 9.6 0.00 0.00 0.00 49 1008.7
20260503160120 47 298 7.0 11.3 0.00 0.00 0.00 54 1008.9
20260503150617 47 319 4.3 7.8 0.00 0.00 0.00 53 1009.4
20260503150146 46 307 6.1 8.7 0.00 0.00 0.00 55 1009.1
20260503140142 45 324 3.5 6.1 0.00 0.00 0.00 66 1009.4
20260503131138 43 339 3.5 6.1 0.00 0.00 0.00 73 1009.8
20260503130638 43 339 1.7 2.6 0.00 0.00 0.00 73 1009.8
20260503130137 42 331 3.5 5.2 0.00 0.00 0.00 74 1009.8
20260503120133 40 317 4.3 7.0 0.00 0.00 0.00 82 1009.8
20260503110630 39 310 1.7 2.6 0.00 0.00 0.00 87 1009.4
20260503110131 39 320 1.7 1.7 0.00 0.00 0.00 87 1009.4
20260503100127 37 327 1.7 1.7 0.00 0.00 0.00 89 1009.4
20260503081621 36 333 0.9 0.9 0.00 0.00 0.00 94 1010.1
20260503081121 36 329 0.9 0.9 0.00 0.00 0.00 93 1009.8
20260503080618 36 331 0.9 0.9 0.00 0.00 0.00 93 1010.1
20260503072649 36 332 0.9 0.9 0.00 0.00 0.00 95 1010.3
20260503072145 36 0.0 0.0 0.00 0.00 0.00 95 1010.5
20260503071648 36 0.0 0.0 0.00 0.00 0.00 95 1010.5
20260503071147 36 335 0.9 1.7 0.00 0.00 0.00 95 1010.7
20260503070644 36 326 0.9 0.9 0.00 0.00 0.00 94 1010.5
20260503070143 36 336 0.0 0.9 0.00 0.00 0.00 94 1010.5
20260503060143 37 0.0 0.0 0.00 0.00 0.00 95 1011.2
20260503054639 36 327 0.9 0.9 0.00 0.00 0.00 96 1011.6
20260503054142 37 330 0.9 0.9 0.00 0.00 0.00 96 1011.6
20260503053741 36 328 0.9 0.9 0.00 0.00 0.00 97 1011.6
20260503053138 36 326 0.9 1.7 0.00 0.00 0.00 97 1011.6
20260503052638 36 327 0.9 0.9 0.00 0.00 0.00 97 1011.6
20260503052137 36 335 0.9 1.7 0.00 0.00 0.00 98 1011.6
20260503051138 36 335 0.9 0.9 0.00 0.00 0.00 98 1011.6
20260503050636 36 326 0.9 1.7 0.00 0.00 0.00 98 1011.9
20260503050136 36 331 0.9 0.9 0.00 0.00 0.00 99 1011.9
20260503045638 36 333 0.9 0.9 0.00 0.00 0.00 99 1011.9
20260503045239 35 332 1.7 1.7 0.00 0.00 0.00 99 1011.9
20260503044635 35 327 0.9 1.7 0.00 0.00 0.00 99 1011.9
20260503044134 35 326 1.7 1.7 0.00 0.00 0.00 99 1011.9
20260503043638 35 328 1.7 1.7 0.00 0.00 0.00 99 1011.9
20260503043235 35 323 1.7 1.7 0.00 0.00 0.00 99 1012.3
20260503042638 35 324 1.7 1.7 0.00 0.00 0.00 99 1012.3
20260503042133 35 324 1.7 1.7 0.00 0.00 0.00 99 1012.3
20260503041634 35 323 1.7 1.7 0.00 0.00 0.00 99 1012.3
20260503041133 35 328 0.9 1.7 0.00 0.00 0.00 99 1012.3
20260503040633 35 328 0.9 1.7 0.00 0.00 0.00 99 1012.6
20260503040132 35 328 1.7 1.7 0.00 0.00 0.00 99 1012.6
20260503035633 35 328 1.7 1.7 0.00 0.00 0.17 99 1012.6
20260503035132 35 327 0.9 1.7 0.00 0.00 0.17 98 1012.6
20260503034631 36 328 0.9 0.9 0.00 0.00 0.17 98 1012.6
20260503034130 36 325 1.7 1.7 0.00 0.00 0.17 98 1013.0
20260503033630 36 322 1.7 1.7 0.00 0.00 0.17 97 1012.6
20260503033131 36 0.0 0.0 0.00 0.00 0.17 97 1012.6
20260503032632 37 332 0.9 0.9 0.00 0.00 0.17 97 1012.6
20260503032131 37 337 0.9 0.9 0.00 0.00 0.17 97 1012.6
20260503031728 37 327 0.9 0.9 0.00 0.00 0.17 96 1012.6
20260503031230 37 328 1.7 1.7 0.00 0.00 0.17 96 1012.6
20260503030128 37 329 0.9 0.9 0.00 0.00 0.17 95 1013.0
20260503025629 37 326 0.9 0.9 0.00 0.00 0.17 95 1012.8
20260503025132 38 335 0.9 0.9 0.00 0.00 0.17 95 1012.6
20260503024628 37 333 1.7 1.7 0.00 0.00 0.17 95 1012.8
20260503024127 38 323 1.7 1.7 0.00 0.00 0.17 94 1013.0
20260503023628 38 333 0.9 0.9 0.00 0.00 0.17 94 1013.0
20260503023127 38 333 0.9 0.9 0.00 0.00 0.17 93 1013.0
20260503022626 38 331 0.9 0.9 0.00 0.00 0.17 93 1013.1
20260503022125 38 326 1.7 1.7 0.00 0.00 0.17 92 1013.0